Powrót do katalogu

FENGYUN 1C DEB

AktywnySSO
NORAD 35231·DEBRIS·🇨🇳 China

Wystrzelony May 10, 1999 z Taiyuan Satellite Launch Center

Loading…

Następne Przeloty (najbliższe 24 godziny)

TLE

Starzejące sięSource: Space-Track

Epoka: Sep 11, 2026, 01:32 UTC

1 35231U 99025DQP 26254.06430571 -.00000001  00000-0  21527-4 0  9997
2 35231  98.6840 295.2671 0037450  28.8693 331.4542 14.14546994953521

Śledź FENGYUN 1C DEB w czasie rzeczywistym z AllMySat

Download on the App Store